DateTimeUTC,F1_A11,F1_S11,BsB_S11,BsG_S11,BsR_S11,BbsB_S11,BbsG_S11,BbsR_S11,BaB_A11,BaG_A11,BaR_A11,Tu_S11,T_S11,Uu_S11,U_S11,P_S11,T1_A11
2021-12-07T17:00:00Z,00000200,21000000,,,,,,,0000.43,0000.47,0000.47,20.2,27.0,,00.0,0636.9,31.2
2021-12-07T17:01:00Z,00000200,21000000,,,,,,,0000.05,0000.49,0000.42,20.2,27.0,,00.0,0636.9,31.1
2021-12-07T17:02:00Z,00000200,21000000,,,,,,,0000.04,-000.35,-000.12,20.1,27.0,,00.0,0636.9,31.1
2021-12-07T17:03:00Z,00000200,61000000,,,,,,,0000.43,0000.64,0000.11,20.1,27.0,,00.0,0636.9,31.1
2021-12-07T17:04:00Z,00000200,41000000,0000.10,0000.17,-000.06,-000.30,-000.07,0000.09,0000.07,-000.06,0000.23,20.1,26.8,,00.0,0637.8,31.1
2021-12-07T17:05:00Z,00000200,01000000,0000.57,-000.04,0000.29,0000.17,0000.26,0000.22,0000.08,-000.35,-000.33,20.1,26.7,,00.0,0637.8,31.1
2021-12-07T17:06:00Z,00000200,01000000,-000.09,0000.28,0000.04,0000.03,0000.16,-000.27,0000.37,0000.12,0000.20,20.0,26.6,,00.0,0637.8,31.1
2021-12-07T17:07:00Z,00000200,01000000,0000.21,0000.07,0000.59,0000.36,-000.08,0000.17,-000.03,0000.06,-000.02,20.1,26.6,,00.0,0637.8,31.1
2021-12-07T17:08:00Z,00000200,01000000,0000.59,0000.43,0000.12,-000.61,-000.09,0000.31,-000.38,0000.36,0000.12,20.1,26.6,,00.0,0637.8,31.1
2021-12-07T17:09:00Z,00000200,01000000,0000.41,-000.06,0000.06,-000.59,-000.20,0000.35,0000.62,0000.24,0000.20,20.1,26.6,,00.0,0637.8,31.1
2021-12-07T17:10:00Z,00000200,01000000,0000.43,0000.08,-000.07,-000.07,-000.11,-000.27,-000.33,-000.05,0000.11,20.1,26.6,,00.0,0637.8,31.1
2021-12-07T17:11:00Z,00000200,01000000,0000.06,-000.22,-000.19,-000.27,0000.06,-000.07,0000.54,-000.04,0000.05,20.2,26.6,,00.0,0637.8,31.1
2021-12-07T17:12:00Z,00000200,01000000,-000.20,-000.08,-000.18,-000.27,0000.11,0000.30,-000.20,-000.01,0000.36,20.3,26.7,,00.0,0637.8,31.1
2021-12-07T17:13:00Z,00000200,01000000,-000.27,0000.31,-000.18,0000.13,0000.11,-000.23,0000.20,0000.45,-000.20,20.3,26.7,,00.0,0637.8,31.1
2021-12-07T17:14:00Z,00000200,01000000,0000.60,0000.20,0000.18,-000.11,0000.22,0000.55,0000.05,0000.35,0000.19,20.3,26.7,,00.0,0637.8,31.1
2021-12-07T17:15:00Z,00000200,01000000,0000.69,-000.20,0000.27,0000.04,-000.29,0000.25,0000.17,0000.11,0000.10,20.4,26.7,,00.0,0637.8,31.1
2021-12-07T17:16:00Z,00000200,01000000,0000.19,0000.11,0000.10,0000.17,-000.01,0000.29,0000.42,0000.20,0000.07,20.4,26.7,,00.0,0637.8,31.2
2021-12-07T17:17:00Z,00000200,01000000,0000.32,-000.01,0000.24,0000.25,0000.13,0000.02,0000.12,0000.12,-000.13,20.4,26.7,,00.0,0637.8,31.1
2021-12-07T17:18:00Z,00000200,01000000,0000.63,-000.29,0000.29,0000.41,-000.36,0000.18,-000.09,-000.32,0000.21,20.3,26.7,,00.0,0637.8,31.1
2021-12-07T17:19:00Z,00000200,01000000,0000.73,-000.07,0000.45,0000.42,0000.12,0000.01,-000.17,-000.45,-000.46,20.2,26.7,,00.0,0637.8,31.1
2021-12-07T17:20:00Z,00000200,01000000,0000.79,0000.15,0000.16,0000.03,0000.13,-000.05,0000.25,0000.39,0000.33,20.2,26.6,,00.0,0637.8,31.1
2021-12-07T17:21:00Z,00000200,01000000,0000.24,-000.00,0000.05,0000.42,-000.10,0000.34,-000.30,0000.11,-000.13,20.1,26.6,,00.0,0637.8,31.1
2021-12-07T17:22:00Z,00000200,01000000,-000.82,0000.47,0000.16,0000.46,0000.07,0000.12,-000.12,-000.44,-000.15,20.1,26.6,,00.0,0637.8,31.1
2021-12-07T17:23:00Z,00000200,01000000,0000.47,-000.14,0000.12,-000.80,-000.14,0000.23,0000.26,0000.12,0000.04,20.2,26.6,,00.0,0637.8,31.1
2021-12-07T17:24:00Z,00000200,01000000,-000.25,0000.25,0000.18,0000.18,0000.21,0000.22,0000.00,0000.03,0000.13,20.2,26.6,,00.0,0637.8,31.1
2021-12-07T17:25:00Z,00000200,01000000,0000.57,0000.08,0000.15,-000.32,-000.10,0000.02,0000.27,0000.33,0000.38,20.2,26.6,,00.0,0637.8,31.1
2021-12-07T17:26:00Z,00000200,01000000,-000.03,-000.07,0000.42,-000.39,0000.11,0000.37,-000.11,0000.00,0000.05,20.3,26.6,,00.0,0637.8,31.1
2021-12-07T17:27:00Z,00000200,01000000,0000.72,0000.07,0000.05,-000.82,0000.12,0000.34,0000.74,0000.43,0000.15,20.3,26.6,,00.0,0637.8,31.1
2021-12-07T17:28:00Z,00000200,01000000,-000.26,0000.04,0000.41,-000.41,-000.11,0000.08,-000.26,-000.28,0000.08,20.4,26.6,,00.0,0637.8,31.2
2021-12-07T17:29:00Z,00000200,01000000,0000.53,-000.01,-000.02,-000.01,0000.08,0000.05,0000.07,-000.01,0000.04,20.4,26.7,,00.0,0637.8,31.1
2021-12-07T17:30:00Z,00000200,01000000,0000.44,0000.27,-000.09,0000.46,0000.06,0000.12,-000.13,0000.55,-000.28,20.4,26.7,,00.0,0637.8,31.1
2021-12-07T17:31:00Z,00000200,01000000,0000.34,0000.17,0000.27,0000.09,-000.25,-000.02,0000.17,-000.01,0000.22,20.5,26.7,,00.0,0637.8,31.1
2021-12-07T17:32:00Z,00000200,01000000,-000.37,0000.46,0000.17,0000.26,-000.01,0000.02,-000.05,0000.03,0000.10,20.5,26.8,,00.0,0637.8,31.2
2021-12-07T17:33:00Z,00000200,01000000,0000.70,-000.14,0000.30,-000.57,0000.00,0000.02,0000.56,0000.30,0000.23,20.5,26.8,,00.0,0637.8,31.2
2021-12-07T17:34:00Z,00000200,01000000,0000.31,-000.07,0000.02,0000.10,0000.15,0000.19,-000.02,-000.11,-000.07,20.5,26.8,,00.0,0637.8,31.1
2021-12-07T17:35:00Z,00000200,01000000,-000.13,-000.03,0000.09,-000.72,-000.05,0000.08,0000.24,0000.14,0000.12,20.4,26.8,,00.0,0637.7,31.1
2021-12-07T17:36:00Z,00000200,01000000,0000.58,0000.12,0000.26,-000.22,-000.25,0000.47,-000.40,-000.04,-000.59,20.4,26.7,,00.0,0637.8,31.1
2021-12-07T17:37:00Z,00000200,01000000,-000.02,-000.26,0000.41,-000.08,-000.06,0000.16,0000.05,-000.03,0000.41,20.4,26.7,,00.0,0637.8,31.1
2021-12-07T17:38:00Z,00000200,01000000,0000.25,0000.34,0000.30,-001.00,0000.24,0000.11,-000.01,-000.06,-000.19,20.4,26.7,,00.0,0637.8,31.1
2021-12-07T17:39:00Z,00000200,01000000,0000.61,-000.10,0000.20,-000.13,-000.20,0000.58,0000.17,0000.18,0000.45,20.4,26.7,,00.0,0637.8,31.1
2021-12-07T17:40:00Z,00000200,01000000,0000.48,0000.08,0000.45,-000.15,-000.08,0000.08,-000.18,0000.02,-000.04,20.5,26.8,,00.0,0637.8,31.1
2021-12-07T17:41:00Z,00000200,01000000,0000.44,-000.25,-000.14,0000.44,0000.32,0000.24,0000.14,0000.15,-000.10,20.5,26.8,,00.0,0637.8,31.2
2021-12-07T17:42:00Z,00000200,01000000,0000.32,0000.14,-000.03,-000.12,0000.16,0000.16,0000.22,0000.11,0000.41,20.6,26.8,,00.0,0637.8,31.2
2021-12-07T17:43:00Z,00000200,01000000,0000.21,0000.30,-000.16,-000.82,-000.21,-000.10,0000.16,0000.29,0000.14,20.6,26.8,,00.0,0637.8,31.2
2021-12-07T17:44:00Z,00000200,01000000,0000.62,-000.07,0000.23,-000.34,-000.06,-000.13,-000.12,-000.09,-000.04,20.7,26.8,,00.0,0637.9,31.2
2021-12-07T17:45:00Z,00000200,01000000,0000.13,0000.30,0000.42,0000.31,0000.19,0000.23,0000.18,-000.07,-000.15,20.7,26.9,,00.0,0637.9,31.2
2021-12-07T17:46:00Z,00000200,01000000,0000.56,-000.13,0000.29,-000.19,-000.24,0000.06,0000.37,-000.10,0000.11,20.7,26.9,,00.0,0637.9,31.2
2021-12-07T17:47:00Z,00000200,01000000,0000.12,0000.14,-000.19,0000.36,0000.26,0000.10,0000.01,0000.18,0000.09,20.8,26.9,,00.0,0637.9,31.2
2021-12-07T17:48:00Z,00000200,01000000,-000.12,0000.13,0000.18,-000.44,-000.04,0000.08,-000.15,0000.17,-000.19,20.8,26.9,,00.0,0637.9,31.2
2021-12-07T17:49:00Z,00000200,01000000,0000.75,-000.26,-000.25,0000.13,-000.12,0000.27,0000.17,-000.01,0000.31,20.8,27.0,,00.0,0637.8,31.2
2021-12-07T17:50:00Z,00000200,01000000,0000.76,0000.12,0000.05,-000.20,-000.28,0000.16,-000.33,0000.02,-000.18,20.8,27.0,,00.0,0637.9,31.2
2021-12-07T17:51:00Z,00000200,01000000,0000.68,0000.50,0000.15,-000.45,-000.06,0000.02,0000.02,0000.14,-000.21,20.7,26.9,,00.0,0637.9,31.2
2021-12-07T17:52:00Z,00000200,01000000,-000.05,0000.06,0000.25,-000.45,-000.07,0000.17,0000.07,-000.39,0000.05,20.7,26.9,,00.0,0637.9,31.2
2021-12-07T17:53:00Z,00000200,01000000,0000.60,-000.24,0000.13,0000.45,-000.19,0000.36,0000.01,0000.09,0000.52,20.7,26.9,,00.0,0637.9,31.2
2021-12-07T17:54:00Z,00000200,01000000,0000.64,-000.27,0000.33,0000.20,-000.36,0000.26,0000.31,-000.10,-000.32,20.8,27.0,,00.0,0637.9,31.2
2021-12-07T17:55:00Z,00000200,01000000,0000.72,0000.45,0000.10,0000.27,0000.13,-000.01,0000.50,0000.93,0000.82,20.8,27.0,,00.0,0637.9,31.2
2021-12-07T17:56:00Z,00000200,01000000,-000.89,0000.08,0000.04,-000.04,-000.37,0000.05,-000.53,-000.33,-000.26,20.8,27.0,,00.0,0637.9,31.2
2021-12-07T17:57:00Z,00000200,41000000,,,,,,,-000.10,-000.05,-000.32,20.9,27.1,,00.0,0637.9,31.2
2021-12-07T17:58:00Z,00000200,61000000,,,,,,,0000.42,0000.27,0000.18,20.6,27.1,,00.0,0637.0,31.2
2021-12-07T17:59:00Z,00000200,21000000,,,,,,,-000.19,0000.12,0000.16,20.6,27.2,,00.0,0637.0,31.2
